Location: Lane
(33.5226°N, 79.8788°W)
Time: 21:18:13
(UTC+00:00)

Courier 1B Rocket - Pass Details

Date: 10 October 2022
Orbit: 920 x 1202 km, 28.2° (Epoch: 05 December)

Event Time Altitude Azimuth Distance (km) Brightness Sun altitude
Rises 00:11:12 0° 266° (W) 3,898 9.9 -17.1°
Reaches altitude 10° 00:14:06 10° 262° (W) 2,896 8.7 -17.7°
Maximum altitude 00:20:54 52° 188° (S) 1,233 5.5 -19.1°
Enters shadow 00:24:13 28° 126° (SE) 1,750 5.9 -19.8°
